TimeEDT,TemperatureF,Dew PointF,Humidity,Sea Level PressureIn,VisibilityMPH,Wind Direction,Wind SpeedMPH,Gust SpeedMPH,PrecipitationIn,Events,Conditions,WindDirDegrees,DateUTC
12:51 AM,57.9,46.9,67,30.18,10.0,Calm,Calm,-,N/A,,Clear,0,2013-05-26 04:51:00
1:51 AM,57.9,46.9,67,30.18,10.0,West,3.5,-,N/A,,Clear,270,2013-05-26 05:51:00
2:51 AM,57.9,46.0,65,30.17,10.0,NW,4.6,-,N/A,,Clear,310,2013-05-26 06:51:00
3:51 AM,53.1,48.0,83,30.16,10.0,Calm,Calm,-,N/A,,Clear,0,2013-05-26 07:51:00
4:51 AM,55.0,46.9,74,30.18,10.0,Calm,Calm,-,N/A,,Clear,0,2013-05-26 08:51:00
5:51 AM,53.1,46.9,80,30.20,10.0,Calm,Calm,-,N/A,,Clear,0,2013-05-26 09:51:00
6:51 AM,54.0,48.0,80,30.23,10.0,NW,4.6,-,N/A,,Clear,310,2013-05-26 10:51:00
7:51 AM,57.0,46.9,69,30.26,10.0,NNW,3.5,-,N/A,,Clear,330,2013-05-26 11:51:00
8:51 AM,63.0,48.9,60,30.27,10.0,NNE,6.9,-,N/A,,Clear,30,2013-05-26 12:51:00
9:51 AM,66.0,48.9,54,30.27,10.0,ENE,11.5,-,N/A,,Clear,60,2013-05-26 13:51:00
10:51 AM,70.0,50.0,49,30.27,10.0,Variable,3.5,-,N/A,,Clear,0,2013-05-26 14:51:00
11:51 AM,75.0,51.1,43,30.27,10.0,ENE,3.5,-,N/A,,Clear,60,2013-05-26 15:51:00
12:51 PM,77.0,50.0,39,30.26,10.0,Calm,Calm,-,N/A,,Clear,0,2013-05-26 16:51:00
1:51 PM,79.0,51.1,38,30.24,10.0,East,6.9,-,N/A,,Clear,80,2013-05-26 17:51:00
2:51 PM,81.0,48.0,31,30.22,10.0,Variable,5.8,-,N/A,,Clear,0,2013-05-26 18:51:00
3:51 PM,82.0,48.0,30,30.20,10.0,North,5.8,-,N/A,,Clear,360,2013-05-26 19:51:00
4:51 PM,82.0,48.0,30,30.18,10.0,Variable,3.5,-,N/A,,Clear,0,2013-05-26 20:51:00
5:51 PM,82.0,50.0,33,30.17,10.0,Variable,3.5,-,N/A,,Clear,0,2013-05-26 21:51:00
6:51 PM,81.0,50.0,34,30.16,10.0,West,3.5,-,N/A,,Clear,260,2013-05-26 22:51:00
7:51 PM,77.0,52.0,42,30.16,10.0,Variable,3.5,-,N/A,,Clear,0,2013-05-26 23:51:00
8:51 PM,71.1,53.1,53,30.16,10.0,SE,3.5,-,N/A,,Clear,130,2013-05-27 00:51:00
9:51 PM,66.0,55.0,68,30.17,10.0,East,3.5,-,N/A,,Clear,100,2013-05-27 01:51:00
10:51 PM,63.0,55.0,75,30.19,10.0,East,3.5,-,N/A,,Clear,100,2013-05-27 02:51:00
11:51 PM,64.0,55.0,73,30.19,10.0,Calm,Calm,-,N/A,,Clear,0,2013-05-27 03:51:00